This is the latest recevied weather packets stored in our database for station/object VA3VWX-13. If no packets are shown the sender has not sent any weather packets the latest 10 day(s).
| Time | Temp. | Humidity | Pressure | Rain* | Wind** | Luminosity | Snow |
|---|---|---|---|---|---|---|---|
| 1778188127 | 8.33° C | 69% | 1010.3 hPa | 0 mm | - | - | - |
| 1778187845 | 8.33° C | 70% | 1010.3 hPa | 0 mm | - | - | - |
| 1778187523 | 8.33° C | 70% | 1010.3 hPa | 0 mm | - | - | - |
| 1778187209 | 8.89° C | 67% | 1010.2 hPa | 0 mm | - | - | - |
| 1778186903 | 9.44° C | 66% | 1010.2 hPa | 0 mm | - | - | - |
| 1778186609 | 9.44° C | 64% | 1010.3 hPa | 0 mm | - | - | - |
| 1778186317 | 10° C | 64% | 1010.3 hPa | 0 mm | - | - | - |
| 1778186023 | 10° C | 63% | 1010.3 hPa | 0 mm | - | - | - |
| 1778185730 | 10° C | 62% | 1010.4 hPa | 0 mm | - | - | - |
| 1778185407 | 10° C | 65% | 1010.3 hPa | 0 mm | - | - | - |
| 1778185116 | 10° C | 64% | 1010.5 hPa | 0 mm | - | - | - |
| 1778184824 | 9.44° C | 64% | 1010.3 hPa | 0 mm | - | - | - |
| 1778184520 | 10° C | 62% | 1010.5 hPa | 0 mm | - | - | - |
| 1778184236 | 10° C | 62% | 1010.5 hPa | 0 mm | - | - | - |
| 1778183905 | 9.44° C | 65% | 1010.6 hPa | 0 mm | - | - | - |
| 1778183603 | 9.44° C | 65% | 1010.6 hPa | 0 mm | - | - | - |
| 1778183309 | 9.44° C | 67% | 1010.8 hPa | 0 mm | - | - | - |
| 1778183016 | 8.89° C | 65% | 1010.9 hPa | 0 mm | - | - | - |
| 1778182724 | 8.89° C | 67% | 1010.9 hPa | 0 mm | - | - | - |
| 1778182416 | 8.89° C | 70% | 1010.8 hPa | 0 mm | - | - | - |
| 1778182120 | 8.89° C | 70% | 1011 hPa | 0 mm | - | - | - |
| 1778181806 | 9.44° C | 68% | 1010.9 hPa | 0 mm | - | - | - |
| 1778181505 | 9.44° C | 64% | 1011.1 hPa | 0 mm | - | - | - |
| 1778181211 | 10° C | 62% | 1011.1 hPa | 0 mm | - | - | - |
| 1778180921 | 10.56° C | 62% | 1011.1 hPa | 0 mm | - | - | - |
* Rain latest hour (hover to see other rain measurements)
** Current wind speed in m/s (hover to see current wind gust speed)